| time (UTC) | temp C | wind direction | speed KPH | gust KPH | rain 1hr cm | rain 24hr cm | rain mn cm | humidity % | barometer mb |
| 20260506203019 | 17 | 87 | 3.2 | 6.4 | 0.00 | 0.00 | 0.00 | 63 | 1011.8 |
| 20260506202007 | 17 | 86 | 4.8 | 8.0 | 0.00 | 0.00 | 0.00 | 63 | 1011.7 |
| 20260506201009 | 17 | 69 | 4.8 | 9.7 | 0.00 | 0.00 | 0.00 | 62 | 1011.5 |
| 20260506200022 | 17 | 95 | 6.4 | 9.7 | 0.00 | 0.00 | 0.00 | 61 | 1011.5 |
| 20260506195008 | 17 | 96 | 4.8 | 9.7 | 0.00 | 0.00 | 0.00 | 62 | 1011.4 |
| 20260506194009 | 17 | 71 | 6.4 | 11.3 | 0.00 | 0.00 | 0.00 | 62 | 1011.3 |
| 20260506193007 | 17 | 96 | 6.4 | 11.3 | 0.00 | 0.00 | 0.00 | 62 | 1011.2 |
| 20260506192009 | 17 | 97 | 6.4 | 11.3 | 0.00 | 0.00 | 0.00 | 62 | 1011.0 |
| 20260506191007 | 17 | 82 | 8.0 | 12.9 | 0.00 | 0.00 | 0.00 | 61 | 1011.0 |
| 20260506190026 | 18 | 92 | 8.0 | 12.9 | 0.00 | 0.00 | 0.00 | 62 | 1010.9 |
| 20260506185008 | 18 | 87 | 8.0 | 12.9 | 0.00 | 0.00 | 0.00 | 61 | 1010.8 |
| 20260506183006 | 18 | 99 | 8.0 | 11.3 | 0.00 | 0.00 | 0.00 | 59 | 1010.7 |
| 20260506182008 | 18 | 111 | 8.0 | 14.5 | 0.00 | 0.00 | 0.00 | 59 | 1010.6 |
| 20260506181025 | 18 | 112 | 9.7 | 14.5 | 0.00 | 0.00 | 0.00 | 58 | 1010.5 |
| 20260506180009 | 18 | 116 | 9.7 | 17.7 | 0.00 | 0.00 | 0.00 | 58 | 1010.4 |
| 20260506175009 | 18 | 120 | 12.9 | 19.3 | 0.00 | 0.00 | 0.00 | 57 | 1010.4 |
| 20260506174008 | 18 | 95 | 9.7 | 14.5 | 0.00 | 0.00 | 0.00 | 58 | 1010.4 |
| 20260506173019 | 19 | 82 | 11.3 | 19.3 | 0.00 | 0.00 | 0.00 | 56 | 1010.5 |
| 20260506172008 | 19 | 74 | 12.9 | 19.3 | 0.00 | 0.00 | 0.00 | 55 | 1010.5 |
| 20260506170009 | 20 | 95 | 14.5 | 22.5 | 0.00 | 0.00 | 0.00 | 55 | 1010.6 |
| 20260506165008 | 20 | 97 | 11.3 | 19.3 | 0.00 | 0.00 | 0.00 | 52 | 1010.8 |
| 20260506164008 | 20 | 94 | 11.3 | 17.7 | 0.00 | 0.00 | 0.00 | 53 | 1010.6 |
| 20260506163019 | 20 | 92 | 11.3 | 17.7 | 0.00 | 0.00 | 0.00 | 53 | 1010.7 |
| 20260506162007 | 19 | 98 | 12.9 | 20.9 | 0.00 | 0.00 | 0.00 | 51 | 1010.7 |
| 20260506161009 | 20 | 96 | 12.9 | 22.5 | 0.00 | 0.00 | 0.00 | 53 | 1010.6 |
| 20260506160032 | 20 | 113 | 12.9 | 19.3 | 0.00 | 0.00 | 0.00 | 53 | 1010.6 |
| 20260506155008 | 19 | 103 | 11.3 | 17.7 | 0.00 | 0.00 | 0.00 | 53 | 1010.6 |
| 20260506154008 | 20 | 83 | 12.9 | 22.5 | 0.00 | 0.00 | 0.00 | 55 | 1010.6 |
| 20260506153007 | 20 | 89 | 17.7 | 27.4 | 0.00 | 0.00 | 0.00 | 53 | 1010.5 |
| 20260506152007 | 20 | 106 | 17.7 | 29.0 | 0.00 | 0.00 | 0.00 | 52 | 1010.3 |
| 20260506151010 | 19 | 103 | 17.7 | 25.7 | 0.00 | 0.00 | 0.00 | 55 | 1010.1 |
| 20260506145008 | 19 | 116 | 9.7 | 14.5 | 0.00 | 0.00 | 0.00 | 54 | 1010.8 |
| 20260506144008 | 20 | 120 | 9.7 | 16.1 | 0.00 | 0.00 | 0.00 | 55 | 1011.0 |
| 20260506143008 | 20 | 95 | 12.9 | 19.3 | 0.00 | 0.00 | 0.00 | 55 | 1010.8 |
| 20260506142008 | 19 | 119 | 11.3 | 20.9 | 0.00 | 0.00 | 0.00 | 57 | 1011.0 |
| 20260506141007 | 19 | 115 | 14.5 | 24.1 | 0.00 | 0.00 | 0.00 | 56 | 1010.9 |
| 20260506140012 | 19 | 114 | 14.5 | 22.5 | 0.00 | 0.00 | 0.00 | 56 | 1010.9 |
| 20260506135007 | 19 | 105 | 17.7 | 27.4 | 0.00 | 0.00 | 0.00 | 57 | 1010.9 |
| 20260506134008 | 20 | 113 | 19.3 | 30.6 | 0.00 | 0.00 | 0.00 | 56 | 1010.9 |
| 20260506133008 | 20 | 114 | 14.5 | 24.1 | 0.00 | 0.00 | 0.00 | 54 | 1010.9 |
| 20260506132007 | 20 | 122 | 16.1 | 25.7 | 0.00 | 0.00 | 0.00 | 51 | 1011.0 |
| 20260506131008 | 21 | 117 | 17.7 | 25.7 | 0.00 | 0.00 | 0.00 | 47 | 1011.0 |
| 20260506130024 | 21 | 128 | 17.7 | 27.4 | 0.00 | 0.00 | 0.00 | 46 | 1011.1 |
| 20260506125006 | 21 | 131 | 19.3 | 29.0 | 0.00 | 0.00 | 0.00 | 48 | 1011.1 |
| 20260506124008 | 21 | 124 | 19.3 | 30.6 | 0.00 | 0.00 | 0.00 | 49 | 1011.2 |
| 20260506123020 | 21 | 130 | 17.7 | 24.1 | 0.00 | 0.00 | 0.00 | 47 | 1011.2 |
| 20260506121007 | 21 | 122 | 16.1 | 24.1 | 0.00 | 0.00 | 0.00 | 49 | 1011.3 |
| 20260506120011 | 21 | 119 | 14.5 | 24.1 | 0.00 | 0.00 | 0.00 | 48 | 1011.4 |
| 20260506114010 | 21 | 115 | 16.1 | 24.1 | 0.00 | 0.00 | 0.00 | 48 | 1011.5 |
| 20260506113009 | 21 | 115 | 16.1 | 24.1 | 0.00 | 0.00 | 0.00 | 48 | 1011.5 |
| 20260506112021 | 21 | 114 | 14.5 | 22.5 | 0.00 | 0.00 | 0.00 | 46 | 1011.6 |
| 20260506111008 | 21 | 121 | 14.5 | 22.5 | 0.00 | 0.00 | 0.00 | 47 | 1011.5 |
| 20260506110019 | 21 | 114 | 14.5 | 22.5 | 0.00 | 0.00 | 0.00 | 44 | 1011.5 |
| 20260506105008 | 21 | 109 | 14.5 | 20.9 | 0.00 | 0.00 | 0.00 | 43 | 1011.6 |
| 20260506104008 | 21 | 120 | 14.5 | 22.5 | 0.00 | 0.00 | 0.00 | 43 | 1011.7 |
| 20260506103021 | 21 | 111 | 14.5 | 22.5 | 0.00 | 0.00 | 0.00 | 41 | 1011.7 |
| 20260506102008 | 22 | 138 | 11.3 | 17.7 | 0.00 | 0.00 | 0.00 | 41 | 1011.7 |
| 20260506100010 | 22 | 134 | 8.0 | 14.5 | 0.00 | 0.00 | 0.00 | 41 | 1011.7 |
| 20260506094008 | 21 | 131 | 8.0 | 12.9 | 0.00 | 0.00 | 0.00 | 44 | 1011.7 |
| 20260506092008 | 21 | 133 | 6.4 | 11.3 | 0.00 | 0.00 | 0.00 | 44 | 1011.7 |
| 20260506090025 | 21 | 175 | 4.8 | 8.0 | 0.00 | 0.00 | 0.00 | 45 | 1011.7 |
| 20260506085008 | 21 | 219 | 4.8 | 8.0 | 0.00 | 0.00 | 0.00 | 48 | 1011.7 |
| 20260506084008 | 21 | 198 | 4.8 | 9.7 | 0.00 | 0.00 | 0.00 | 49 | 1011.8 |
| 20260506083014 | 20 | 215 | 1.6 | 4.8 | 0.00 | 0.00 | 0.00 | 51 | 1011.9 |
| 20260506082008 | 20 | 287 | 3.2 | 6.4 | 0.00 | 0.00 | 0.00 | 51 | 1011.8 |
| 20260506081009 | 20 | 285 | 3.2 | 6.4 | 0.00 | 0.00 | 0.00 | 54 | 1011.8 |
| 20260506072009 | 17 | 276 | 6.4 | 11.3 | 0.00 | 0.00 | 0.00 | 59 | 1011.8 |
| 20260506071008 | 17 | 309 | 6.4 | 12.9 | 0.00 | 0.00 | 0.00 | 59 | 1011.8 |
| 20260506061008 | 15 | 303 | 9.7 | 16.1 | 0.00 | 0.00 | 0.00 | 68 | 1011.5 |
| 20260506051008 | 13 | 308 | 9.7 | 16.1 | 0.00 | 0.00 | 0.00 | 76 | 1011.2 |
| 20260506044008 | 13 | 283 | 6.4 | 9.7 | 0.00 | 0.00 | 0.00 | 76 | 1011.2 |
| 20260506043009 | 13 | 271 | 8.0 | 11.3 | 0.00 | 0.00 | 0.00 | 76 | 1011.2 |
| 20260506042028 | 13 | 277 | 8.0 | 12.9 | 0.00 | 0.00 | 0.00 | 75 | 1011.0 |
| 20260506041010 | 14 | 284 | 6.4 | 9.7 | 0.00 | 0.00 | 0.00 | 74 | 1010.9 |
| 20260506040034 | 14 | 281 | 4.8 | 8.0 | 0.00 | 0.00 | 0.00 | 73 | 1010.8 |
| 20260506035008 | 14 | 306 | 8.0 | 11.3 | 0.00 | 0.00 | 0.00 | 73 | 1010.9 |
| 20260506034008 | 15 | 311 | 8.0 | 12.9 | 0.00 | 0.00 | 0.00 | 72 | 1010.9 |
| 20260506033014 | 15 | 313 | 6.4 | 11.3 | 0.00 | 0.00 | 0.00 | 71 | 1010.9 |
| 20260506032007 | 15 | 312 | 6.4 | 9.7 | 0.00 | 0.00 | 0.00 | 70 | 1011.0 |
| 20260506031009 | 15 | 337 | 6.4 | 9.7 | 0.00 | 0.00 | 0.00 | 70 | 1011.1 |
| 20260506030028 | 15 | 336 | 6.4 | 11.3 | 0.00 | 0.00 | 0.00 | 71 | 1011.1 |
| 20260506025008 | 15 | 318 | 8.0 | 12.9 | 0.00 | 0.00 | 0.00 | 70 | 1011.1 |
| 20260506024008 | 15 | 309 | 8.0 | 14.5 | 0.00 | 0.00 | 0.00 | 69 | 1011.1 |
| 20260506023017 | 15 | 301 | 4.8 | 9.7 | 0.00 | 0.00 | 0.00 | 68 | 1011.1 |
| 20260506022011 | 15 | 263 | 6.4 | 9.7 | 0.00 | 0.00 | 0.00 | 69 | 1011.1 |
| 20260506021008 | 15 | 268 | 4.8 | 9.7 | 0.00 | 0.00 | 0.00 | 68 | 1011.0 |
| 20260506020031 | 15 | 272 | 6.4 | 8.0 | 0.00 | 0.00 | 0.00 | 67 | 1011.0 |
| 20260506015007 | 15 | 284 | 8.0 | 12.9 | 0.00 | 0.00 | 0.00 | 67 | 1010.9 |
| 20260506013011 | 15 | 309 | 8.0 | 12.9 | 0.00 | 0.00 | 0.00 | 64 | 1010.9 |
| 20260506012009 | 15 | 316 | 3.2 | 6.4 | 0.00 | 0.00 | 0.00 | 62 | 1010.9 |
| 20260506011008 | 16 | 315 | 3.2 | 4.8 | 0.00 | 0.00 | 0.00 | 61 | 1011.0 |
| 20260506010009 | 15 | 274 | 3.2 | 4.8 | 0.00 | 0.00 | 0.00 | 62 | 1011.1 |
| 20260506005009 | 16 | 270 | 3.2 | 6.4 | 0.00 | 0.00 | 0.00 | 62 | 1011.2 |
| 20260506004008 | 16 | 244 | 3.2 | 4.8 | 0.00 | 0.00 | 0.00 | 61 | 1011.3 |
| 20260506003026 | 16 | 228 | 3.2 | 6.4 | 0.00 | 0.00 | 0.00 | 61 | 1011.4 |
| 20260506002007 | 16 | 354 | 0.0 | 1.6 | 0.00 | 0.00 | 0.00 | 59 | 1011.5 |
| 20260506001009 | 16 | 1 | 1.6 | 4.8 | 0.00 | 0.00 | 0.00 | 58 | 1011.5 |
| 20260505235008 | 16 | 20 | 3.2 | 6.4 | 0.00 | 0.00 | 0.00 | 57 | 1011.6 |
| 20260505234008 | 16 | 8 | 3.2 | 6.4 | 0.00 | 0.00 | 0.00 | 57 | 1011.6 |
| 20260505233011 | 16 | 0 | 3.2 | 4.8 | 0.00 | 0.00 | 0.00 | 57 | 1011.6 |
| 20260505232006 | 16 | 14 | 4.8 | 9.7 | 0.00 | 0.00 | 0.00 | 57 | 1011.6 |
| 20260505231007 | 16 | 33 | 6.4 | 9.7 | 0.00 | 0.00 | 0.00 | 57 | 1011.5 |
| 20260505225007 | 17 | 47 | 11.3 | 19.3 | 0.00 | 0.00 | 0.00 | 58 | 1011.3 |
| 20260505224008 | 17 | 36 | 11.3 | 17.7 | 0.00 | 0.00 | 0.00 | 58 | 1011.3 |
| 20260505223007 | 17 | 23 | 11.3 | 20.9 | 0.00 | 0.00 | 0.00 | 58 | 1011.2 |
| 20260505220010 | 17 | 29 | 14.5 | 27.4 | 0.00 | 0.00 | 0.00 | 59 | 1011.1 |
| 20260505213011 | 17 | 42 | 19.3 | 30.6 | 0.00 | 0.00 | 0.00 | 60 | 1011.0 |
| 20260505211007 | 17 | 46 | 24.1 | 38.6 | 0.00 | 0.00 | 0.00 | 62 | 1011.1 |
| 20260505210011 | 17 | 45 | 20.9 | 35.4 | 0.00 | 0.00 | 0.00 | 65 | 1010.9 |
| 20260505205011 | 18 | 46 | 20.9 | 33.8 | 0.00 | 0.00 | 0.00 | 68 | 1010.8 |